Regional Weather Roundup
Issued by NWS Wakefield, VA

Home | Current Version | Previous Version | Text Only | Print | Product List | Glossary Off
Versions: 1 2 3 4 5 6 7 8 9 10 11 12 13 14 15 16 17 18 19 20 21 22 23 24 25 26 27 28 29 30 31 32 33 34 35 36 37 38 39 40 41 42 43 44 45 46 47 48 49 50

000
ASUS41 KAKQ 261510
RWRAKQ

REGIONAL WEATHER ROUNDUP
NATIONAL WEATHER SERVICE WAKEFIELD VA
1000 AM EST MON JAN 26 2015

Note: "fair" indicates few or no clouds below 12,000 feet with no
significant weather and/or obstructions to visibility. * = Denotes
station may not report precipitation (e.g., rain,snow,etc.),
thunder or fog.

VAZ042-051-052>054-056-261600-
NORTHERN VIRGINIA

CITY           SKY/WX    TMP DP  RH WIND       PRES   REMARKS
WASH NATIONAL  CLOUDY    37  31  78 NE13      29.81R
DULLES         LGT SNOW  33  30  88 E8        29.78S FOG
FORT BELVOIR   CLOUDY    36  33  91 VRB5      29.80R
QUANTICO       CLOUDY    37  34  89 E9        29.80R
FREDERICKSBRG* LGT RAIN  39  39 100 NE6       29.76R
STAFFORD*      LGT RAIN  37  32  81 E8        29.81R
WARRENTON      RAIN      37  37 100 NE6       29.77R
CULPEPER*      LGT RAIN  37  37 100 NE5       29.77R
MANASSAS*      CLOUDY    36  36 100 E3        29.78R
LEESBURG*      LGT SNOW  32  32 100 NE7       29.80S
WINCHESTER     LGT SNOW  34  30  86 E3        29.77R
FRONT ROYAL*   CLOUDY    34  32  93 NE5       29.75R
LURAY*         MIX PCPN  36  36 100 N6        29.73R
$$

VAZ048-049-060>072-079>083-261600-
CENTRAL AND SOUTH CENTRAL VIRGINIA

CITY           SKY/WX    TMP DP  RH WIND       PRES   REMARKS
RICHMOND       CLOUDY    43  40  89 NE5       29.73S
CHESTERFIELD*  CLOUDY    41  28  60 E3        29.74R
PETERSBURG*    CLOUDY    43  39  87 NE5       29.73R
HANOVER        LGT RAIN  40  38  93 CALM      29.75S FOG
TAPPAHANNOCK*  CLOUDY    42  36  78 NE6       29.75S
QUINTON*       CLOUDY    43  37  81 E6        29.73S
CHARLOTTSVILLE LGT RAIN  36  34  92 N5        29.73R FOG
GORDONSVILLE*  CLOUDY    38  37  98 N5        29.73S FOG
ORANGE*        LGT RAIN  39  37  93 N3        29.76R
LOUISA*        DRIZZLE   39  37  93 NE6       29.72S
BUMPASS*       CLOUDY    38  37  97 NE5       29.74S
FARMVILLE*     LGT RAIN  42  42 100 N6        29.69S
CREWE*         CLOUDY    39  38  94 CALM      29.70S
FORT PICKETT*  CLOUDY    40  39  97 E6        29.70R
CHASE CITY*    CLOUDY    42  42 100 CALM      29.69R
CLARKSVILLE*   CLOUDY    39  39 100 E6        29.67F
SOUTH HILL*    CLOUDY    38  37  95 CALM      29.75S
LAWRENCEVILLE* CLOUDY    38  37  97 CALM      29.69F
EMPORIA*       CLOUDY    41  36  81 NE3       29.72F
$$

VAZ088>098-261600-
SOUTHEAST VIRGINIA

CITY           SKY/WX    TMP DP  RH WIND       PRES   REMARKS
NORFOLK        CLOUDY    44  40  85 NE6       29.70F
VIRGINIA BEACH CLOUDY    49  42  77 NE3       29.68F
NORFOLK NAVAL  PTSUNNY   48  39  71 N7        29.71F
WEST POINT*    PTSUNNY   48  38  66 E13       29.73F
SALUDA*        CLOUDY    41  37  86 N6        29.73F
NEWPORT NEWS   PTSUNNY   49  39  68 E7        29.71F
LANGLEY AFB    PTSUNNY   43  39  85 N6        29.71F
FORT EUSTIS    PTSUNNY   47  41  77 E5        29.69F
WILLIAMSBURG*    N/A     50  43  76 CALM      29.72F
HR EXEC AP*    PTSUNNY   43  39  87 CALM      29.72F
FRANKLIN*      CLOUDY    43  39  86 E5        29.70F
WAKEFIELD      CLOUDY    45  37  73 CALM      29.72S
$$

VAZ020-022-025-037-045-261600-
WEST CENTRAL AND SOUTHWEST VIRGINIA

CITY           SKY/WX    TMP DP  RH WIND       PRES   REMARKS
STAUNTON*      LGT SNOW  33  32  95 CALM      29.73R VSB 1
WAYNESBORO*    CLOUDY    32  32  99 CALM      29.70R VSB 1
HOT SPRINGS VA   N/A    N/A N/A N/A MISG        N/A
LYNCHBURG      CLOUDY    38  38 100 N6        29.70R FOG
DANVILLE       CLOUDY    44  38  79 NE7       29.68S
SOUTH BOSTON*  CLOUDY    41  40  95 CALM      29.68S
MARTINSVILLE   CLOUDY    40  38  93 N3        29.69S
ROANOKE        CLOUDY    40  35  83 CALM      29.69F
BLACKSBURG     CLOUDY    39  33  81 E3        29.67S
DUBLIN*        CLOUDY    39  37  92 NE3       29.66S
MARION*        DRIZZLE   38  36  94 W7        29.67R
HILLSVILLE*    MIX PCPN  35  35  99 NW5       29.63R
RICHLANDS*     LGT SNOW  34  33  94 W3        29.65R
WISE*          LGT SNOW  34  34 100 NW12G17   29.68R
ABINGDON*      DRIZZLE   40  39  98 W7        29.67R
$$

MDZ021>025-VAZ099-100-261600-
SOUTHERN MARYLAND AND THE DELMARVA PENINSULA

CITY           SKY/WX    TMP DP  RH WIND       PRES   REMARKS
PATUXENT RIVER CLOUDY    39  36  87 NE9       29.77R
BAY BRIDGE APT LGT RAIN  32  32 100 NE7       29.81S
LEONARDTOWN    CLOUDY    36  34  93 NE5       29.78S
DOVER          CLOUDY    32  32 100 NE14G25   29.81F WCI  22
GEORGETOWN     CLOUDY    39  35  86 NE16G25   29.78F
EASTON         CLOUDY    36  36 100 E13G24    29.83R
CAMBRIDGE      CLOUDY    37  34  87 NE9G16    29.77R
SALISBURY      CLOUDY    46  38  73 NE12      29.74S
OCEAN CITY     CLOUDY    43  39  86 E14G24    29.74F
WALLOPS ISLAND CLOUDY    43  40  89 E14       29.73F
ACCOMACK*      CLOUDY    45  37  76 E10       29.71F
$$

NCZ012>017-030>032-261600-
NORTH CENTRAL AND EASTERN NORTH CAROLINA

CITY           SKY/WX    TMP DP  RH WIND       PRES   REMARKS
ROANOKE RAPIDS DRIZZLE   39  37  93 N3        29.68F
RALEIGH        PTSUNNY   44  41  89 NE5       29.64F
ELIZABETH CITY CLOUDY    46  42  86 NW5       29.68F
AHOSKIE*       PTSUNNY   41  37  86 N6        29.69F
EDENTON*       CLOUDY    45  43  93 N5        29.67F
CURRITUCK*     CLOUDY    47  43  87 N3        29.69F
KILL DEVIL HLS CLOUDY    48  46  91 CALM      29.65F
MANTEO         CLOUDY    48  45  87 N3        29.66F
CAPE HATTERAS  CLOUDY    51  46  83 CALM      29.64F
TARBORO*       PTSUNNY   43  38  84 N7        29.68F
GOLDSBORO      PTSUNNY   46  45  98 NW1       29.64F
WASHINGTON     CLOUDY    43  40  90 CALM      29.65F
GREENVILLE     PTSUNNY   41  39  93 N7        29.69F
NEW BERN       CLOUDY    47  42  83 CALM      29.67S
WILMINGTON     CLOUDY    49  45  86 W9        29.66R
$$

VAZ048-261600-
ELSEWHERE

CITY           SKY/WX    TMP DP  RH WIND       PRES   REMARKS
HARRISBURG PA  CLOUDY    23  18  81 NE8       29.88S
BALTIMORE      LGT SNOW  32  29  88 NE14      29.82S FOG     WCI  22
ANNAPOLIS      MIX PCPN  33  30  88 NE10      29.82R FOG     WCI  25
ANDREWS AFB    NOT AVBL
PHILADELPHIA   LGT SNOW  28  23  81 NE17G25   29.90F WCI  16
HENDERSON NC   LGT RAIN  40  38  93 E5        29.67F
GREENSBORO     CLOUDY    41  35  79 N6        29.65R
ROCKY MOUNT    LGT RAIN  44  39  82 NE10      29.65F
$$

VAZ100-261600-
MARINE

STATION/POSITION TIME  TEMP    WIND        PRES    WAVE   SWELL
                       AIR SEA DIR/SP/G            HT/PER HT/PER
                 (UTC) (F)     (DEG/KT/KT) (MB)    (FT/S) (FT/S)
BRANDYWINE LGT   1500   36 37   70/ 25/ 30 1008.0F
CAPE MAY NJ      1500   38 39   60/ 17/ 27 1007.9F
LEWES DE         1500   38 38   70/ 26/ 32 1007.2F
15NM E FENWICK I 1500   44 42              1006.6F   6/ 6
OCEAN-CITY-INLET 1500   43 40   70/ 12/ 18 1006.5F
WACHAPREAGUE VA  1500   43 42   30/ 10/ 14 1006.0R
THOMAS POINT MD  1500   33 37   60/ 14/ 16 1010.5R
GOOSES REEF MD   1500   36 37  VRB 16/ 17  1007.6R   2/ 3
COVE POINT MD    1500   36      60/ 11/ 13 1008.1R
SOLOMONS ISLAND  1500      39                N/A
BISHOPS HEAD MD  1500   40 38   30/ 11/ 13 1007.0S
PINEY POINT MD   1500           80/ 12/ 17   N/A
POTOMAC MD       1500   40 38   60/ 14/ 17 1006.0F   1/ 2
CAMBRIDGE MD     1500   36 36   50/ 12/ 14 1008.3R
LEWISETTA VA     1500   40 39   70/ 10/ 13 1007.0F
RAPPAHANNOCK LGT 1500           70/  8/  9 1006.4R
STINGRAY PT      1500   40 39   10/ 12/ 14 1007.2F   1/ 3
YORK RVR RNG VA  1500   42      10/  8/  9 1005.7F
YORKTOWN VA      1500   43 41   70/  4/  5 1006.1F
JAMESTOWN VA     1500   45 41  120/  6/ 10   N/A     0
DOMINION TERM VA 1500   45      20/  3/  5 1006.0F
KIPTOPEKE VA     1500      46   70/  8/  9   N/A
CHES BAY BRIDGE  1500   42 41  360/  5/  6 1005.6R
CAPE HENRY VA    1500   43      CALM  /  4 1004.4F
CHESAPEAKE LGHT  1400   46      60/ 11/ 12 1006.2F
WILLOUBY STN VA  1500   43      20/  9/  9 1006.2F
S CRANEY ISL VA  1500           10/  5/  5 1005.8F
CAPE HENRY BUOY  1400      43                N/A     2/ 8
1ST LANDING BUOY 1500   42 41  360/  6/  6 1005.4F   1/ 4
CAPE CHARLES BUO 1500      42                N/A     2/ 9   2/ 9
OFFSHORE WE BUOY 1500      47                N/A     2/ 8   2/ 8
64NM E OF VA BCH 1500   53 52   40/ 12/ 14 1003.9F   3/ 8   2/ 8
DUCK PIER NC     1500   46 44   10/  4/  5 1004.0R
44100 DUCK FRF   1500      44                N/A     2/ 8   2/11
44056 DUCK FRF   1500      43                N/A     2/ 9
OREGON INLET NC  1500   49 46  360/  5/  7 1004.3F
HATTERAS NC      1500   50 54  330/  7/  8 1004.0F



USA.gov is the U.S. government's official web portal to all federal, state and local government web resources and services.